TimeCST,TemperatureF,Dew PointF,Humidity,Sea Level PressureIn,VisibilityMPH,Wind Direction,Wind SpeedMPH,Gust SpeedMPH,PrecipitationIn,Events,Conditions,WindDirDegrees,DateUTC
12:15 AM,5.0,-4.0,66,30.45,10.0,North,20.7,29.9,N/A,,Scattered Clouds,350,2014-01-21 06:15:00
12:35 AM,5.0,-4.0,66,30.46,10.0,NNW,18.4,-,N/A,,Scattered Clouds,340,2014-01-21 06:35:00
12:55 AM,5.0,-4.0,66,30.46,10.0,North,15.0,24.2,N/A,,Mostly Cloudy,360,2014-01-21 06:55:00
1:15 AM,5.0,-4.0,66,30.48,10.0,NNW,17.3,24.2,N/A,,Mostly Cloudy,340,2014-01-21 07:15:00
1:35 AM,3.2,-5.8,66,30.48,10.0,North,17.3,-,N/A,,Scattered Clouds,350,2014-01-21 07:35:00
1:55 AM,3.2,-5.8,66,30.49,10.0,North,12.7,21.9,N/A,,Clear,350,2014-01-21 07:55:00
2:15 AM,3.2,-5.8,66,30.49,10.0,North,18.4,-,N/A,,Clear,350,2014-01-21 08:15:00
2:35 AM,1.4,-7.6,66,30.50,10.0,North,15.0,21.9,N/A,,Clear,360,2014-01-21 08:35:00
2:55 AM,1.4,-7.6,66,30.51,10.0,North,13.8,20.7,N/A,,Clear,350,2014-01-21 08:55:00
3:15 AM,1.4,-7.6,66,30.52,10.0,North,11.5,19.6,N/A,,Clear,350,2014-01-21 09:15:00
3:35 AM,1.4,-7.6,66,30.53,10.0,North,12.7,-,N/A,,Clear,350,2014-01-21 09:35:00
3:55 AM,-0.4,-9.4,66,30.54,10.0,North,11.5,-,N/A,,Clear,360,2014-01-21 09:55:00
4:15 AM,-0.4,-9.4,66,30.53,10.0,NNW,13.8,19.6,N/A,,Clear,340,2014-01-21 10:15:00
4:35 AM,-0.4,-9.4,66,30.53,10.0,NNW,9.2,-,N/A,,Clear,330,2014-01-21 10:35:00
4:55 AM,-0.4,-9.4,66,30.53,10.0,NNW,11.5,-,N/A,,Clear,340,2014-01-21 10:55:00
5:15 AM,-0.4,-11.2,60,30.53,10.0,NNW,9.2,-,N/A,,Clear,340,2014-01-21 11:15:00
5:35 AM,-2.2,-11.2,66,30.52,10.0,NNW,9.2,-,N/A,,Clear,340,2014-01-21 11:35:00
5:55 AM,-2.2,-11.2,66,30.52,10.0,North,6.9,-,N/A,,Clear,360,2014-01-21 11:55:00
6:15 AM,-2.2,-11.2,66,30.51,10.0,NNW,8.1,-,N/A,,Clear,340,2014-01-21 12:15:00
6:35 AM,-2.2,-11.2,66,30.51,10.0,NNW,6.9,-,N/A,,Clear,340,2014-01-21 12:35:00
6:55 AM,-2.2,-11.2,66,30.51,10.0,NNW,5.8,-,N/A,,Clear,330,2014-01-21 12:55:00
7:15 AM,-2.2,-11.2,66,30.51,10.0,NW,6.9,-,N/A,,Clear,320,2014-01-21 13:15:00
7:35 AM,-2.2,-13.0,60,30.51,10.0,NNW,5.8,-,N/A,,Clear,330,2014-01-21 13:35:00
7:55 AM,-2.2,-11.2,66,30.51,10.0,NNW,5.8,-,N/A,,Clear,330,2014-01-21 13:55:00
8:15 AM,-2.2,-13.0,60,30.51,10.0,NW,8.1,-,N/A,,Clear,320,2014-01-21 14:15:00
8:35 AM,-0.4,-11.2,60,30.50,10.0,NNW,8.1,-,N/A,,Clear,340,2014-01-21 14:35:00
8:55 AM,-0.4,-13.0,55,30.50,10.0,North,8.1,-,N/A,,Clear,350,2014-01-21 14:55:00
9:15 AM,-0.4,-11.2,60,30.50,10.0,Variable,4.6,-,N/A,,Clear,0,2014-01-21 15:15:00
9:35 AM,1.4,-11.2,56,30.49,10.0,Calm,Calm,-,N/A,,Clear,0,2014-01-21 15:35:00
9:55 AM,1.4,-11.2,56,30.49,10.0,NNW,3.5,-,N/A,,Clear,340,2014-01-21 15:55:00
10:15 AM,1.4,-11.2,56,30.48,10.0,Calm,Calm,-,N/A,,Clear,0,2014-01-21 16:15:00
10:35 AM,3.2,-11.2,51,30.48,10.0,Calm,Calm,-,N/A,,Clear,0,2014-01-21 16:35:00
10:55 AM,3.2,-9.4,56,30.46,10.0,SSW,3.5,-,N/A,,Clear,200,2014-01-21 16:55:00
11:15 AM,5.0,-9.4,52,30.46,10.0,Calm,Calm,-,N/A,,Clear,0,2014-01-21 17:15:00
11:35 AM,6.8,-9.4,48,30.45,10.0,SSW,5.8,-,N/A,,Clear,210,2014-01-21 17:35:00
11:55 AM,6.8,-9.4,48,30.44,10.0,SW,5.8,-,N/A,,Clear,230,2014-01-21 17:55:00
12:15 PM,8.6,-9.4,44,30.39,10.0,SSW,3.5,13.8,N/A,,Clear,200,2014-01-21 18:15:00
12:35 PM,10.4,-9.4,41,30.36,10.0,SSW,8.1,-,N/A,,Clear,200,2014-01-21 18:35:00
12:55 PM,12.2,-9.4,38,30.35,10.0,SW,8.1,-,N/A,,Clear,220,2014-01-21 18:55:00
1:15 PM,12.2,-7.6,41,30.31,10.0,South,8.1,15.0,N/A,,Clear,190,2014-01-21 19:15:00
1:35 PM,14.0,-7.6,38,30.29,10.0,SSW,8.1,15.0,N/A,,Clear,200,2014-01-21 19:35:00
1:55 PM,14.0,-9.4,35,30.26,10.0,South,9.2,15.0,N/A,,Clear,190,2014-01-21 19:55:00
2:15 PM,14.0,-7.6,38,30.23,10.0,South,10.4,-,N/A,,Mostly Cloudy,180,2014-01-21 20:15:00
2:35 PM,15.8,-7.6,35,30.22,10.0,South,12.7,-,N/A,,Scattered Clouds,190,2014-01-21 20:35:00
2:55 PM,15.8,-7.6,35,30.21,10.0,SSW,15.0,-,N/A,,Clear,200,2014-01-21 20:55:00
3:15 PM,15.8,-7.6,35,30.21,10.0,SSW,11.5,-,N/A,,Scattered Clouds,210,2014-01-21 21:15:00
3:35 PM,15.8,-5.8,38,30.20,10.0,South,8.1,13.8,N/A,,Scattered Clouds,180,2014-01-21 21:35:00
3:55 PM,15.8,-4.0,41,30.18,10.0,SSE,12.7,-,N/A,,Partly Cloudy,150,2014-01-21 21:55:00
4:15 PM,15.8,-5.8,38,30.17,10.0,South,13.8,-,N/A,,Mostly Cloudy,170,2014-01-21 22:15:00
4:35 PM,15.8,-4.0,41,30.17,10.0,South,15.0,-,N/A,,Overcast,170,2014-01-21 22:35:00
4:55 PM,15.8,-4.0,41,30.17,10.0,South,12.7,-,N/A,,Overcast,170,2014-01-21 22:55:00
5:15 PM,17.6,-4.0,38,30.18,10.0,South,12.7,-,N/A,,Overcast,170,2014-01-21 23:15:00
5:35 PM,17.6,-4.0,38,30.14,10.0,South,16.1,-,N/A,,Mostly Cloudy,180,2014-01-21 23:35:00
5:55 PM,17.6,-4.0,38,30.16,10.0,South,12.7,-,N/A,,Mostly Cloudy,180,2014-01-21 23:55:00
6:15 PM,17.6,-4.0,38,30.16,10.0,South,10.4,-,N/A,,Overcast,190,2014-01-22 00:15:00
6:35 PM,17.6,-2.2,42,30.16,10.0,South,13.8,-,N/A,,Overcast,180,2014-01-22 00:35:00
6:55 PM,17.6,-2.2,42,30.15,10.0,South,11.5,-,N/A,,Overcast,180,2014-01-22 00:55:00
7:15 PM,19.4,-2.2,39,30.15,10.0,South,10.4,17.3,N/A,,Overcast,180,2014-01-22 01:15:00
7:35 PM,19.4,-2.2,39,30.13,10.0,South,10.4,-,N/A,,Overcast,170,2014-01-22 01:35:00
7:55 PM,19.4,-2.2,39,30.13,10.0,South,12.7,-,N/A,,Overcast,170,2014-01-22 01:55:00
8:15 PM,19.4,-2.2,39,30.13,10.0,South,9.2,-,N/A,,Overcast,180,2014-01-22 02:15:00
8:35 PM,21.2,-2.2,36,30.12,10.0,South,9.2,-,N/A,,Overcast,180,2014-01-22 02:35:00
8:55 PM,21.2,-2.2,36,30.11,10.0,South,11.5,-,N/A,,Overcast,190,2014-01-22 02:55:00
9:15 PM,21.2,-2.2,36,30.12,-9999.0,South,8.1,13.8,N/A,,Overcast,190,2014-01-22 03:15:00
9:35 PM,21.2,-2.2,36,30.12,10.0,South,6.9,-,N/A,,Overcast,190,2014-01-22 03:35:00
9:55 PM,21.2,-2.2,36,30.10,10.0,South,11.5,-,N/A,,Overcast,190,2014-01-22 03:55:00
10:15 PM,21.2,-2.2,36,30.09,10.0,SSW,11.5,-,N/A,,Overcast,200,2014-01-22 04:15:00
10:35 PM,21.2,-0.4,39,30.08,10.0,SSW,11.5,-,N/A,,Overcast,200,2014-01-22 04:35:00
10:55 PM,21.2,-0.4,39,30.08,10.0,SSW,8.1,-,N/A,,Overcast,210,2014-01-22 04:55:00
11:15 PM,21.2,-0.4,39,30.08,10.0,WSW,10.4,-,N/A,,Overcast,240,2014-01-22 05:15:00
11:35 PM,21.2,1.4,42,30.07,10.0,WSW,5.8,12.7,N/A,,Overcast,240,2014-01-22 05:35:00
11:55 PM,23.0,3.2,43,30.06,10.0,WSW,11.5,-,N/A,,Overcast,250,2014-01-22 05:55:00